Ubirata, Brazil
Current Conditions -  °F | °C
As of 6:00 AM on Saturday 29 Nov 2014 (Local Time) from SBCA Reporting Station
Scattered Clouds Scattered Clouds  
Wind Chill: 70°   Ceiling: Unl
Heat Index: 70°   Visibility: 6mi
Dew Point: 59°   Wind: 21mph
Humidity: 68%   Direction: 70°ENE
Pressure: 30"   Gusts: NA
Location:  24.55°S, 52.99°W
Report Text: SBCA 290800Z 07018KT 9999 FEW010 SCT100 21/15 Q1016
Loading
Personal Weather Stations






























Interactive Weather Map New forecast layout! Learn more

10-Day Weather Forecast

Advertisements
Track Severe Weather on mobile